Regional Weather Roundup
Issued by NWS Cleveland, OH

Home | Current Version | Previous Version | Text Only | Print | Product List | Glossary Off
Versions: 1 2 3 4 5 6 7 8 9 10 11 12 13 14 15 16 17 18 19 20 21 22 23 24 25 26 27 28 29 30 31 32 33 34 35 36 37 38 39 40 41 42 43 44 45 46 47 48 49 50

000
ASUS41 KCLE 091510
RWRCLE
OHIO REGIONAL WEATHER ROUNDUP
NATIONAL WEATHER SERVICE CLEVELAND, OH
1000 AM EST FRI DEC 09 2016

NOTE: "FAIR" INDICATES FEW OR NO CLOUDS BELOW 12,000 FEET WITH NO
SIGNIFICANT WEATHER AND/OR OBSTRUCTIONS TO VISIBILITY.

OHZ001>008-015>018-024>027-034-035-043-044-091600-
   NORTHWEST OHIO

CITY           SKY/WX    TMP DP  RH WIND       PRES   REMARKS
DEFIANCE       LGT SNOW  26  20  77 W6        30.44R WCI  19
FINDLAY        LGT SNOW  24  18  77 W18       30.43R WCI  10
TOLEDO EXPRESS LGT SNOW  25  23  92 W12       30.41R FOG     WCI  14
TOLEDO EXEC    CLOUDY    26  22  84 W13       30.43R WCI  15
LIMA           LGT SNOW  22  19  89 W16       30.44R FOG     WCI   8
$$

OHZ009>014-019>023-028>033-038-089-091600-
   NORTHEAST OHIO

CITY           SKY/WX    TMP DP  RH WIND       PRES   REMARKS
CLE-HOPKINS    CLOUDY    26  18  71 SW16      30.41R WCI  14
CLE-LAKEFRONT  CLOUDY    27  21  78 SW20      30.37R WCI  13
CUY CO. ARPT   LGT SNOW  27  21  80 W23G29    30.35R WCI  12
LORAIN-ELYRIA  LGT SNOW  24  17  74 W17       30.40R WCI  11
ASHTABULA      LGT SNOW  25  23  92 SW9       30.32R VSB 3/4 WCI  15
AKRON-CANTON   LGT SNOW  23  17  78 W13       30.37R WCI  11
WOOSTER        CLOUDY    22  17  81 W15       30.39R WCI   9
MANSFIELD      LGT SNOW  22  18  85 W10G21    30.39R FOG     WCI  11
YOUNGSTOWN     FLURRIES  24  19  81 W10G20    30.33R WCI  14
$$

OHZ042-051>053-060>062-070>072-077>081-091600-
  SOUTHWEST OHIO

CITY           SKY/WX    TMP DP  RH WIND       PRES   REMARKS
CINC-COVINGTON FLURRIES  22  14  71 W13       30.54R WCI  10
CINC-LUNKEN    LGT SNOW  24  14  65 W9        30.59R WCI  14
HAMILTON       PTSUNNY   25  15  66 W9        30.56R WCI  15
DAYTON         PTSUNNY   22  15  75 W18       30.49R WCI   7
WRIGHT-PAT AFB CLOUDY    22  15  74 W13       30.50R WCI  10
DAYTON GENERAL MOSUNNY   22  14  71 W12G18    30.50R WCI  10
WILMINGTON     PTSUNNY   21  14  74 W12       30.50R WCI   9
$$

OHZ036-037-039>041-045>050-054>059-063>069-073>076-082>088-091600-
  CENTRAL AND SOUTHEAST OHIO

CITY           SKY/WX    TMP DP  RH WIND       PRES   REMARKS
COLUMBUS       PTSUNNY   24  17  74 W13       30.47R WCI  12
OSU AIRPORT    CLOUDY    23  16  74 W15       30.46R WCI  10
BOLTON FIELD   CLOUDY    23  16  74 W10       30.48R WCI  12
RICKENBACK AFB   N/A     23  16  75 W13G20    30.49R WCI  11
NEWARK         CLOUDY    24  15  68 W15       30.45R WCI  11
MARION         LGT SNOW  22  18  85 W12       30.43R FOG     WCI  10
LANCASTER      PTSUNNY   22  16  78 W10G22    30.49R WCI  11
ZANESVILLE     CLOUDY    24  15  68 W14G22    30.45R WCI  12
NEW PHILLY     LGT SNOW  23  18  81 W6        30.43R WCI  16
$$




USA.gov is the U.S. government's official web portal to all federal, state and local government web resources and services.